This demonstration page uses our WeatherBlox Daily Observations layout. Learn more.

Left ArrowRight Arrow

38.80484, -77.04692

Hourly Observations for May 25, 2022

Temp ( °F °C ) Dew Point ( °F °C ) Humidity (%) Winds ( mph kmh ) Pressure ( in mb ) Visibility ( mi km ) Precip ( " mm )
12:52 am 00:52 Cloudy 61 16.1 48 8.9 63 63 NNE 7 11 30.29 1026 10 16 0.00 0.00
1:52 am 01:52 Cloudy 61 16.1 49 9.4 65 65 NE 7 11 30.28 1025 10 16 0.00 0.00
2:52 am 02:52 Cloudy 60 15.6 48 8.9 65 65 NNE 6 9 30.28 1026 10 16 0.00 0.00
3:52 am 03:52 Partly Cloudy 58 14.4 47 8.3 67 67 NE 9 15 30.27 1025 10 16 0.00 0.00
4:52 am 04:52 Partly Cloudy 58 14.4 50 10 75 75 NE 8 13 30.28 1026 10 16 0.00 0.00
5:13 am 05:13 Mostly Cloudy 58 14.4 48 8.9 70 70 NE 7 11 30.29 1026 10 16 0.00 0.00
5:52 am 05:52 Cloudy 58 14.4 50 10 75 75 NNE 12 19 30.30 1026 10 16 0.00 0.00
6:52 am 06:52 Cloudy 59 15 51 10.6 75 75 NE 12 19 30.32 1027 10 16 0.00 0.00
7:36 am 07:36 Cloudy 59 15 53 11.7 81 81 NE 14 22 30.33 1027 10 16 0.00 0.00
7:52 am 07:52 Cloudy 61 16.1 54 12.2 78 78 NE 10 17 30.33 1027 10 16 0.00 0.00
8:52 am 08:52 Cloudy 62 16.7 54 12.2 75 75 ENE 7 11 30.35 1028 10 16 0.00 0.00
9:26 am 09:26 Cloudy 63 17.2 55 12.8 76 76 NE 8 13 30.34 1027 10 16 0.00 0.00
9:52 am 09:52 Cloudy 64 17.8 56 13.3 75 75 NE 9 15 30.34 1028 10 16 0.00 0.00
10:45 am 10:45 Cloudy 66 18.9 56 13.3 70 70 E 13 20 30.34 1027 10 16 0.00 0.00
10:52 am 10:52 Cloudy 67 19.4 56 13.3 68 68 ENE 9 15 30.34 1027 10 16 0.00 0.00
11:52 am 11:52 Cloudy 69 20.6 55 12.8 61 61 E 12 19 30.34 1027 10 16 0.00 0.00
12:52 pm 12:52 Mostly Cloudy 70 21.1 54 12.2 57 57 E 15 24 30.33 1027 10 16 0.00 0.00
1:52 pm 13:52 Cloudy 71 21.7 54 12.2 55 55 E 7 11 30.33 1027 10 16 0.00 0.00
2:52 pm 14:52 Cloudy 71 21.7 52 11.1 51 51 E 10 17 30.32 1027 10 16 0.00 0.00
3:52 pm 15:52 Mostly Cloudy 71 21.7 50 10 47 47 SE 14 22 30.30 1026 10 16 0.00 0.00
4:52 pm 16:52 Mostly Cloudy 71 21.7 49 9.4 46 46 ESE 13 20 30.29 1026 10 16 0.00 0.00
5:52 pm 17:52 Mostly Cloudy 71 21.7 49 9.4 46 46 E 13 20 30.29 1026 10 16 0.00 0.00
6:52 pm 18:52 Mostly Cloudy 69 20.6 48 8.9 47 47 ESE 10 17 30.30 1026 10 16 0.00 0.00
7:52 pm 19:52 Mostly Cloudy 68 20 48 8.9 49 49 ESE 9 15 30.30 1026 10 16 0.00 0.00
8:52 pm 20:52 Mostly Cloudy 67 19.4 47 8.3 49 49 ESE 10 17 30.31 1026 10 16 0.00 0.00
9:52 pm 21:52 Mostly Cloudy 66 18.9 48 8.9 52 52 E 9 15 30.32 1027 10 16 0.00 0.00
10:52 pm 22:52 Cloudy 65 18.3 47 8.3 52 52 E 12 19 30.31 1027 10 16 0.00 0.00
11:52 pm 23:52 Cloudy 64 17.8 47 8.3 54 54 SE 7 11 30.32 1027 10 16 0.00 0.00

Powered by AerisWeather